Previsão horária em Aljustrel

Hoje, 18 Janeiro, Segunda-feira

Tempo Temperatura Precipitação Vento Pressão Humidade
00:00 +6°C° 0 mm 1 m/s 755 mmHg 77%
01:00 +5°C° 0 mm 1 m/s 755 mmHg 77%
02:00 +5°C° 0 mm 1 m/s 755 mmHg 77%
03:00 +5°C° 0 mm 1 m/s 754 mmHg 76%
04:00 +5°C° 0 mm 1 m/s 754 mmHg 75%
05:00 +4°C° 0 mm 1 m/s 754 mmHg 73%
06:00 +5°C° 0 mm 1 m/s 755 mmHg 72%
07:00 +6°C° 0 mm 1 m/s 755 mmHg 71%
08:00 +6°C° 0 mm 1 m/s 755 mmHg 70%
09:00 +9°C° 0 mm 1 m/s 755 mmHg 64%
10:00 +11°C° 0 mm 1 m/s 756 mmHg 57%
11:00 +14°C° 0 mm 1 m/s 756 mmHg 51%
12:00 +15°C° 0 mm 1 m/s 755 mmHg 50%
13:00 +15°C° 0 mm 1 m/s 754 mmHg 49%
14:00 +16°C° 0 mm 1 m/s 754 mmHg 48%
15:00 +14°C° 0 mm 1 m/s 754 mmHg 57%
16:00 +12°C° 0 mm 1 m/s 754 mmHg 65%
17:00 +10°C° 0 mm 1 m/s 754 mmHg 73%
18:00 +9°C° 0 mm 1 m/s 754 mmHg 76%
19:00 +8°C° 0 mm 1 m/s 754 mmHg 78%
20:00 +7°C° 0 mm 1 m/s 754 mmHg 81%
21:00 +7°C° 0 mm 1 m/s 755 mmHg 82%
22:00 +7°C° 0 mm 1 m/s 755 mmHg 84%
23:00 +6°C° 0 mm 1 m/s 755 mmHg 85%

Amanhã, 19 Janeiro, Terça-feira

Tempo Temperatura Precipitação Vento Pressão Humidade
00:00 +6°C° 0 mm 1 m/s 754 mmHg 87%
01:00 +6°C° 0 mm 1 m/s 754 mmHg 88%
02:00 +6°C° 0 mm 1 m/s 753 mmHg 90%
03:00 +5°C° 0 mm 2 m/s 753 mmHg 91%
04:00 +5°C° 0 mm 2 m/s 753 mmHg 92%
05:00 +5°C° 0 mm 2 m/s 753 mmHg 93%
06:00 +6°C° 0 mm 2 m/s 753 mmHg 93%
07:00 +7°C° 0 mm 2 m/s 753 mmHg 94%
08:00 +7°C° 0 mm 2 m/s 753 mmHg 94%
09:00 +9°C° 0 mm 2 m/s 753 mmHg 87%
10:00 +11°C° 0 mm 3 m/s 753 mmHg 80%
11:00 +13°C° 0 mm 4 m/s 753 mmHg 73%
12:00 +13°C° 0 mm 4 m/s 752 mmHg 71%
13:00 +14°C° 0 mm 3 m/s 752 mmHg 69%
14:00 +14°C° 0 mm 3 m/s 751 mmHg 67%
15:00 +13°C° 0 mm 3 m/s 751 mmHg 73%
16:00 +11°C° 0 mm 3 m/s 750 mmHg 78%
17:00 +10°C° 0 mm 3 m/s 750 mmHg 84%
18:00 +10°C° 0 mm 3 m/s 750 mmHg 86%
19:00 +9°C° 0 mm 3 m/s 750 mmHg 89%
20:00 +8°C° 0 mm 4 m/s 749 mmHg 91%
21:00 +8°C° 0 mm 4 m/s 749 mmHg 89%
22:00 +10°C° 0 mm 4 m/s 748 mmHg 87%
23:00 +9°C° 0 mm 5 m/s 748 mmHg 85%

Depois de amanhã, 20 Janeiro, Quarta-feira

Tempo Temperatura Precipitação Vento Pressão Humidade
00:00 +10°C° 0.2 mm 5 m/s 747 mmHg 85%
01:00 +10°C° 0.2 mm 5 m/s 746 mmHg 85%
02:00 +10°C° 0.2 mm 5 m/s 745 mmHg 85%
03:00 +11°C° 3.7 mm 6 m/s 744 mmHg 88%
04:00 +11°C° 3.7 mm 6 m/s 744 mmHg 92%
05:00 +11°C° 3.7 mm 6 m/s 743 mmHg 95%
06:00 +11°C° 1.2 mm 6 m/s 743 mmHg 94%
07:00 +11°C° 1.2 mm 6 m/s 743 mmHg 93%
08:00 +11°C° 1.2 mm 6 m/s 743 mmHg 91%
09:00 +13°C° 0.2 mm 6 m/s 743 mmHg 86%
10:00 +14°C° 0.2 mm 7 m/s 743 mmHg 80%
11:00 +13°C° 0.2 mm 8 m/s 744 mmHg 74%
12:00 +13°C° 0.1 mm 8 m/s 744 mmHg 72%
13:00 +13°C° 0.1 mm 8 m/s 744 mmHg 70%
14:00 +13°C° 0.1 mm 8 m/s 743 mmHg 68%
15:00 +12°C° 0.1 mm 7 m/s 744 mmHg 73%
16:00 +11°C° 0.1 mm 6 m/s 744 mmHg 79%
17:00 +10°C° 0.1 mm 5 m/s 744 mmHg 84%
18:00 +11°C° 0.1 mm 4 m/s 745 mmHg 87%
19:00 +11°C° 0.1 mm 4 m/s 746 mmHg 89%
20:00 +11°C° 0.1 mm 4 m/s 746 mmHg 92%
21:00 +10°C° 0 mm 4 m/s 746 mmHg 93%
22:00 +10°C° 0 mm 4 m/s 747 mmHg 93%
23:00 +10°C° 0 mm 4 m/s 747 mmHg 94%

21 Janeiro, Quinta-feira

Tempo Temperatura Precipitação Vento Pressão Humidade
00:00 +10°C° 0.1 mm 4 m/s 747 mmHg 94%
01:00 +10°C° 0.1 mm 4 m/s 747 mmHg 94%
02:00 +10°C° 0.1 mm 4 m/s 748 mmHg 95%
03:00 +10°C° 0 mm 3 m/s 748 mmHg 95%
04:00 +10°C° 0 mm 3 m/s 748 mmHg 95%
05:00 +10°C° 0 mm 3 m/s 748 mmHg 95%
06:00 +10°C° 0.1 mm 3 m/s 748 mmHg 94%
07:00 +11°C° 0.1 mm 4 m/s 748 mmHg 92%
08:00 +12°C° 0.1 mm 4 m/s 749 mmHg 91%
09:00 +13°C° 0 mm 5 m/s 749 mmHg 86%
10:00 +14°C° 0 mm 6 m/s 749 mmHg 80%
11:00 +15°C° 0 mm 7 m/s 749 mmHg 75%
12:00 +15°C° 0 mm 7 m/s 748 mmHg 75%
13:00 +15°C° 0 mm 7 m/s 748 mmHg 76%
14:00 +15°C° 0 mm 7 m/s 747 mmHg 76%
15:00 +15°C° 0.3 mm 7 m/s 747 mmHg 82%
16:00 +15°C° 0.3 mm 6 m/s 747 mmHg 87%
17:00 +14°C° 0.3 mm 6 m/s 747 mmHg 93%
18:00 +14°C° 0.1 mm 5 m/s 747 mmHg 94%
19:00 +14°C° 0.1 mm 5 m/s 747 mmHg 95%
20:00 +13°C° 0.1 mm 4 m/s 747 mmHg 96%
21:00 +13°C° 0 mm 4 m/s 747 mmHg 96%
22:00 +13°C° 0 mm 4 m/s 747 mmHg 97%
23:00 +13°C° 0 mm 4 m/s 747 mmHg 97%

22 Janeiro, Sexta-feira

Tempo Temperatura Precipitação Vento Pressão Humidade
00:00 +13°C° 0.1 mm 4 m/s 747 mmHg 96%
01:00 +13°C° 0.1 mm 5 m/s 746 mmHg 96%
02:00 +13°C° 0.1 mm 5 m/s 746 mmHg 96%
03:00 +13°C° 0.3 mm 5 m/s 746 mmHg 95%
04:00 +12°C° 0.3 mm 5 m/s 746 mmHg 94%
05:00 +11°C° 0.3 mm 6 m/s 746 mmHg 93%
06:00 +11°C° 0.1 mm 6 m/s 747 mmHg 92%
07:00 +11°C° 0.1 mm 6 m/s 748 mmHg 91%
08:00 +11°C° 0.1 mm 6 m/s 748 mmHg 90%
09:00 +12°C° 0.1 mm 7 m/s 749 mmHg 82%
10:00 +12°C° 0.1 mm 7 m/s 749 mmHg 74%
11:00 +13°C° 0.1 mm 8 m/s 750 mmHg 67%
12:00 +13°C° 0 mm 8 m/s 750 mmHg 65%
13:00 +13°C° 0 mm 8 m/s 750 mmHg 64%
14:00 +13°C° 0 mm 9 m/s 750 mmHg 62%
15:00 +12°C° 0 mm 7 m/s 750 mmHg 67%
16:00 +10°C° 0 mm 5 m/s 750 mmHg 73%
17:00 +10°C° 0 mm 4 m/s 751 mmHg 78%
18:00 +10°C° 0 mm 4 m/s 751 mmHg 80%
19:00 +9°C° 0 mm 3 m/s 752 mmHg 82%
20:00 +9°C° 0 mm 3 m/s 752 mmHg 84%
21:00 +9°C° 0 mm 3 m/s 752 mmHg 86%
22:00 +8°C° 0 mm 2 m/s 753 mmHg 87%
23:00 +8°C° 0 mm 2 m/s 753 mmHg 89%

23 Janeiro, Sábado

Tempo Temperatura Precipitação Vento Pressão Humidade
00:00 +8°C° 0 mm 2 m/s 753 mmHg 90%
01:00 +8°C° 0 mm 2 m/s 753 mmHg 90%
02:00 +7°C° 0 mm 2 m/s 753 mmHg 91%
03:00 +7°C° 0 mm 2 m/s 753 mmHg 91%
04:00 +7°C° 0 mm 2 m/s 753 mmHg 90%
05:00 +8°C° 0 mm 2 m/s 753 mmHg 90%
06:00 +8°C° 0 mm 2 m/s 753 mmHg 88%
07:00 +9°C° 0 mm 2 m/s 754 mmHg 86%
08:00 +10°C° 0 mm 2 m/s 754 mmHg 84%
09:00 +12°C° 0 mm 2 m/s 754 mmHg 78%
10:00 +13°C° 0 mm 3 m/s 754 mmHg 71%
11:00 +14°C° 0 mm 4 m/s 754 mmHg 65%
12:00 +14°C° 0 mm 4 m/s 753 mmHg 66%
13:00 +14°C° 0 mm 4 m/s 753 mmHg 68%
14:00 +15°C° 0 mm 4 m/s 752 mmHg 69%
15:00 +13°C° 0 mm 4 m/s 752 mmHg 76%
16:00 +12°C° 0 mm 3 m/s 752 mmHg 82%
17:00 +12°C° 0 mm 2 m/s 752 mmHg 89%
18:00 +10°C° 0 mm 3 m/s 752 mmHg 91%
19:00 +10°C° 0 mm 3 m/s 753 mmHg 93%
20:00 +10°C° 0 mm 3 m/s 753 mmHg 95%
21:00 +10°C° 0 mm 3 m/s 753 mmHg 95%
22:00 +10°C° 0 mm 3 m/s 752 mmHg 94%
23:00 +11°C° 0 mm 4 m/s 752 mmHg 94%
Mostrar mais

Necessitamos do seu Consentimento

A Meteoprog e os seus Fornecedores de Serviços podem armazenar e aceder a dados pessoais como cookies, identificadores do dispositivo ou outras tecnologias semelhantes existentes no seu dispositivo e processar estes dados para personalizar conteúdos e anúncios, assim como funcionalidades nas redes sociais e análise de tráfego.

  • Armazenar e/ou aceder a informações no seu dispositivo

    Os cookies, identificadores do dispositivo ou outras informações podem ser armazenados ou acedidos no seu dispositivo, para os fins acima indicados.

  • Anúncios e conteúdos personalizados, medição de anúncios e conteúdos, dados sobre o público-alvo e desenvolvimento de produtos

    Os anúncios e os conteúdos podem ser personalizados com base num perfil. Podem ser adicionados dados adicionais para uma maior personalização dos anúncios e dos conteúdos. A eficácia dos anúncios e dos conteúdos pode ser medida. Podem ser obtidas informações sobre o público que visualizou os anúncios e os conteúdos. Estes dados podem ser usados para desenvolver ou melhorar sistemas, softwares ou a experiência do utilizador.

Ao clicar em "Eu concordo”, permitirá o uso de cookies, identificadores do dispositivo e web beacons mencionados ou outras tecnologias semelhantes. As configurações do navegador do seu dispositivo podem ser alteradas.

Para certos fins, podem ser invocados interesses legítimos ao invés de consentimento. Pode ler mais informação sobre este assunto na nossa Política de Privacidade e Cookies.